Location: Lewisville
(33.0462°N, 96.9942°W)
Time: 03:26:44
(UTC-06:00)

N. Korean satellite - Pass Details

Date: 02 December 2019
Orbit: 454 x 508 km, 97.2° (Epoch: 17 January)

Event Time Altitude Azimuth Distance (km) Brightness Sun altitude
Rises 17:41:34 0° 171° (S) 2,583 10.4 -4.8°
Reaches altitude 10° 17:43:38 10° 173° (S) 1,708 9.6 -5.2°
Maximum altitude 17:47:19 76° 259° (W) 526 6.9 -5.9°
Drops below altitude 10° 17:51:03 10° 345° (NNW) 1,728 9.3 -6.6°
Sets 17:53:09 0° 347° (NNW) 2,617 10.2 -7.0°
